RH
84 85 86 86 87 92 95 95 96 96 96 95 92 92 89 84 87 88 87 88 87 84 80 79 78 77 78 76 75 77 76 71 70 72 71 66 62 64 65 65 65 64 61 58 55 53 51 50 48 45 41 35 35 39 40 39 38 37 35 34 34 36 37 38 38 40 41 43 45 46 46 47 48 48 48 47 47 47 47 47 47 47 48 48 49 49 49 48 49 50 49 41 33 34 32 31 37
82 84 85 87 89 92 93 93 95 95 95 93 91 91 89 87 90 91 88 87 85 82 80 79 78 78 77 74 72 72 72 73 70 68 66 62 61 62 62 63 62 59 57 54 53 51 48 46 45 43 39 33 34 38 38 36 35 35 34 34 36 38 38 38 39 41 42 44 45 47 48 49 49 48 48 49 49 49 48 47 46 47 47 47 48 48 48 48 49 49 50 46 36 35 35 34 37
81 85 86 89 90 91 91 92 94 94 93 91 90 89 87 88 90 89 86 82 81 79 78 77 78 77 75 72 71 71 72 73 68 63 64 60 59 61 60 60 58 56 53 52 51 48 46 43 42 41 37 31 34 36 35 34 33 33 33 35 38 38 38 39 40 42 43 44 45 47 49 49 47 47 47 49 49 49 49 48 47 46 47 47 48 48 49 51 51 50 50 49 41 37 38 37 38
81 85 86 88 89 90 91 92 93 93 92 89 86 85 86 88 88 87 83 80 78 78 77 76 77 74 73 72 69 71 72 72 70 62 62 60 57 58 58 56 56 54 52 51 49 46 44 41 39 39 36 31 33 35 34 33 31 32 33 36 39 38 39 40 41 42 45 46 46 46 48 49 48 47 47 47 48 48 48 49 48 46 47 47 47 48 50 52 53 52 50 50 46 40 39 40 40
81 84 85 87 88 88 88 90 91 92 91 89 85 83 85 85 86 85 82 80 78 77 77 74 74 72 72 72 67 70 71 71 71 61 59 60 57 57 56 54 53 53 51 49 47 46 43 39 38 37 36 32 33 34 32 32 30 32 33 37 38 37 39 41 41 43 45 47 46 45 46 49 49 48 46 47 46 46 47 48 47 45 46 45 45 45 46 48 51 52 51 50 49 45 40 39 41
81 83 84 86 88 87 86 87 87 89 88 85 85 83 83 84 84 83 81 80 79 78 76 72 70 70 71 71 69 71 70 68 66 61 58 58 58 57 55 53 52 51 48 47 46 44 41 38 37 37 36 33 33 33 31 31 31 32 33 35 36 37 39 41 42 44 46 46 45 44 45 48 49 48 47 46 45 45 45 46 46 45 46 45 44 44 42 44 46 49 49 50 51 49 44 39 41
80 81 84 86 88 87 86 85 82 84 83 80 82 83 83 82 81 81 80 78 78 76 72 68 65 67 69 69 70 70 69 66 62 59 58 56 57 57 55 53 50 48 47 46 44 42 39 37 37 37 35 32 32 33 31 31 30 32 33 34 35 36 39 41 42 43 44 45 45 45 45 47 50 49 47 45 44 44 44 44 44 45 46 45 44 44 43 43 44 46 48 49 51 51 49 44 42
79 81 83 86 87 86 85 83 81 81 78 74 76 78 81 80 79 79 77 75 74 71 68 66 64 65 65 66 68 66 64 63 59 57 57 55 54 56 55 52 49 47 47 46 42 40 38 36 38 37 34 30 31 32 30 30 31 32 34 35 36 38 40 41 41 41 41 42 43 44 44 47 50 48 46 44 43 42 43 42 43 44 44 45 44 44 44 43 44 44 45 48 50 50 50 49 48
78 80 81 84 84 84 84 80 80 81 77 75 75 76 78 79 79 78 76 75 72 68 68 67 64 66 64 64 66 64 61 60 58 57 57 54 53 54 53 52 50 48 47 44 41 39 37 37 38 36 32 28 29 31 29 30 32 34 35 36 38 40 41 40 40 39 39 39 40 41 42 45 46 44 44 44 43 42 42 41 41 42 43 42 43 43 43 43 43 43 44 45 46 48 49 50 51
78 80 79 80 82 83 82 79 76 78 79 77 78 76 77 77 78 78 77 74 70 67 69 65 63 66 65 64 66 63 61 58 57 57 56 54 52 53 52 52 50 47 46 42 39 38 38 38 37 36 31 27 28 29 29 31 34 36 37 39 41 42 41 40 40 39 39 39 40 40 41 42 42 42 42 43 43 42 40 40 39 40 40 40 41 41 42 42 43 43 43 44 45 46 47 50 52
77 78 78 79 82 83 81 79 75 75 77 77 78 77 76 77 78 79 78 74 69 67 67 65 63 65 64 64 67 65 60 57 55 55 54 52 51 51 50 51 51 47 43 40 38 37 37 38 36 36 31 27 27 28 31 34 37 38 40 41 43 43 42 42 43 43 43 43 42 42 42 41 41 40 40 41 42 42 40 39 39 38 39 40 41 41 42 43 44 45 45 46 47 46 47 50 53
75 74 78 80 82 83 80 79 77 74 75 75 76 76 76 76 77 79 78 74 70 69 67 66 65 65 65 64 66 64 60 57 54 53 53 52 51 50 49 49 49 45 41 39 37 37 37 37 36 36 32 27 26 27 32 36 39 41 42 43 44 45 45 45 45 44 45 45 45 44 44 42 41 40 39 40 41 41 40 39 39 39 39 38 39 41 42 43 44 45 46 47 47 47 48 50 53
73 73 77 80 80 80 78 78 76 74 75 75 74 74 75 75 74 74 76 75 72 71 67 66 66 65 64 63 64 62 60 58 55 54 53 53 51 49 49 47 46 44 40 38 38 38 38 38 37 36 32 28 26 28 33 37 40 42 44 44 44 46 46 47 46 45 45 45 45 45 44 43 42 41 40 40 40 39 39 39 39 39 37 36 36 37 38 39 40 41 43 45 46 47 46 48 51
73 71 74 78 78 76 74 76 74 75 77 75 75 75 74 73 72 70 71 73 71 70 66 64 65 65 63 61 61 61 59 58 55 54 55 53 51 50 49 47 45 43 40 38 37 38 39 39 37 36 32 28 27 29 33 37 40 43 44 44 44 45 46 47 46 44 44 44 43 42 42 41 41 40 40 41 40 40 39 37 37 37 35 33 32 32 34 35 35 35 36 38 39 41 42 43 48
72 71 73 76 76 74 71 72 72 75 74 72 73 72 73 72 70 68 66 71 69 65 64 62 62 64 62 58 57 57 56 55 54 56 57 54 52 52 52 49 46 43 41 39 38 38 40 40 37 36 32 28 27 27 32 36 40 42 42 42 42 44 45 45 44 43 41 39 39 39 40 39 39 39 38 38 37 37 35 35 35 34 32 31 31 32 36 38 37 36 34 35 38 41 44 45 47
69 71 74 74 74 74 70 69 68 72 70 69 71 70 73 70 67 66 62 70 69 61 61 60 61 62 62 58 57 56 54 54 55 58 59 55 53 54 52 50 46 42 41 41 39 38 39 39 38 34 30 29 27 26 29 33 39 41 40 40 41 44 45 45 44 41 36 36 37 38 38 37 37 36 35 34 32 31 31 32 32 32 32 33 35 38 42 43 44 45 44 44 45 46 46 45 47
66 71 74 74 72 71 69 66 65 69 68 68 71 69 72 66 63 64 61 69 68 61 62 61 60 60 60 59 57 56 55 55 56 58 58 56 55 55 52 49 46 42 41 42 40 38 39 40 38 32 29 30 27 26 27 29 36 40 37 38 41 43 45 46 44 38 34 36 37 37 37 37 35 32 30 29 30 31 31 31 32 33 34 36 38 41 44 46 47 48 50 49 49 48 47 46 46
65 70 72 71 69 68 66 64 64 67 68 68 70 69 69 65 61 61 61 67 67 63 63 62 60 59 60 59 56 55 55 55 57 57 57 55 54 56 55 49 46 42 40 41 40 39 39 40 38 32 30 30 28 25 26 27 32 36 34 36 39 41 44 45 41 36 35 36 36 36 38 37 34 30 28 27 29 31 32 33 35 36 36 38 40 41 42 46 47 47 49 50 48 47 46 45 45
60 65 68 66 64 64 63 64 65 66 67 69 68 67 68 67 63 63 63 64 64 64 64 62 60 58 59 58 55 54 54 55 57 57 56 55 53 54 54 49 46 41 38 39 38 38 38 38 37 34 30 30 28 25 25 26 28 31 31 34 36 38 41 39 36 36 35 35 36 36 36 35 33 31 29 30 32 34 36 38 39 40 40 41 42 42 44 47 48 47 48 50 49 46 46 47 47
54 61 64 60 60 61 61 64 66 64 66 67 67 66 68 67 64 63 64 63 64 65 62 60 59 56 58 58 54 52 53 55 56 57 57 56 53 52 52 49 43 37 36 36 36 36 37 36 36 35 31 29 28 25 24 25 26 28 30 32 33 34 34 34 35 37 35 35 36 37 36 34 34 33 32 36 37 37 39 41 44 46 46 46 46 45 47 47 47 47 48 48 48 49 52 53 50
52 54 56 57 57 60 63 64 66 64 65 66 67 66 64 62 63 62 63 64 66 65 60 57 57 54 55 57 54 51 52 54 55 56 56 56 55 53 53 51 44 37 35 34 34 34 34 34 34 34 32 30 28 25 24 25 26 27 29 30 31 30 29 31 37 39 36 36 37 38 37 36 35 34 36 40 41 41 40 43 46 50 51 50 49 48 48 48 46 47 48 47 47 50 53 54 52
51 47 48 53 54 58 62 61 63 65 65 66 66 65 61 59 61 60 60 61 61 61 61 57 55 53 52 54 54 52 51 52 55 55 55 55 55 54 54 52 46 40 35 33 32 31 31 32 32 32 31 30 29 27 25 25 26 27 28 29 29 28 27 31 38 39 39 38 39 40 39 39 38 37 40 44 45 44 43 45 48 51 51 49 48 49 48 47 47 46 46 47 48 48 50 52 52
49 45 46 50 51 55 58 59 61 63 64 64 65 63 60 60 60 59 57 60 60 61 62 57 53 53 52 52 51 51 50 50 53 54 54 53 54 54 53 51 47 40 35 33 32 30 30 30 30 30 30 30 29 29 27 27 27 27 27 28 27 27 27 31 36 38 39 39 40 42 42 42 41 40 43 46 47 47 45 48 51 50 49 48 48 48 47 47 47 46 46 48 49 49 50 53 52
46 45 46 48 50 53 55 59 61 61 62 62 63 62 60 60 59 59 58 58 60 62 63 58 53 52 51 50 49 49 49 48 50 53 52 52 53 54 52 51 48 42 37 33 31 30 29 29 29 29 28 29 29 29 29 28 27 27 27 26 26 26 28 32 35 38 39 40 40 42 42 43 44 44 45 47 48 48 48 50 52 51 48 48 48 48 48 47 46 47 50 51 51 52 52 54 54
44 43 44 45 49 51 53 58 59 59 60 60 62 61 59 59 58 59 58 57 60 60 63 61 54 50 48 47 46 47 49 48 48 51 51 51 54 55 53 51 50 45 39 34 31 30 29 29 27 28 28 28 30 29 29 29 27 27 26 25 25 26 29 33 36 38 40 41 41 41 41 42 44 46 46 46 47 48 49 50 52 50 48 48 48 48 48 48 47 48 51 53 52 52 53 55 55
41 41 42 43 46 50 51 55 56 57 59 59 59 59 57 58 58 59 58 58 61 61 61 61 55 50 47 47 46 45 47 48 47 48 50 52 54 53 50 50 49 44 40 36 32 30 30 29 28 28 28 28 30 30 29 29 28 26 25 24 24 26 30 33 36 39 40 40 41 41 39 41 43 45 46 45 46 48 48 49 50 48 47 47 47 47 46 47 47 47 50 53 54 55 56 55 54
40 40 40 41 44 48 49 52 53 53 57 58 58 59 58 56 57 57 58 59 60 60 60 60 55 51 49 46 46 47 46 47 47 47 49 51 52 51 47 48 49 43 39 37 33 31 31 29 29 29 29 29 29 30 30 29 28 26 24 23 24 27 31 34 37 41 41 39 41 43 40 40 43 45 47 46 46 48 47 47 48 48 48 47 47 47 46 47 48 48 49 53 56 57 56 52 50
40 40 39 40 42 45 47 49 52 51 54 56 57 62 61 57 55 54 56 60 60 59 61 61 55 52 50 46 45 47 46 46 46 46 46 48 50 50 46 47 49 44 39 38 35 33 33 31 30 30 30 30 30 30 31 30 28 25 23 23 25 29 32 34 38 41 41 38 40 44 42 42 44 45 46 45 45 47 47 47 46 48 48 46 46 47 45 47 49 50 52 54 55 54 52 48 46
39 39 39 38 38 42 44 46 51 53 54 54 57 62 60 55 54 54 56 59 60 61 61 58 52 51 51 47 46 46 46 46 45 44 44 46 48 49 48 47 48 45 39 39 38 36 35 33 31 30 30 30 30 30 30 29 27 24 23 23 27 31 33 36 40 40 39 38 39 42 44 43 44 44 45 45 45 47 47 46 46 46 46 45 44 44 44 46 50 52 52 53 52 48 46 44 44
38 38 38 37 36 37 39 43 49 52 55 53 55 61 59 54 54 56 58 59 61 63 61 55 50 51 50 48 46 45 46 45 43 43 44 45 46 46 47 46 46 44 39 38 39 38 36 34 33 31 30 30 30 30 30 28 27 26 25 25 29 33 36 38 41 39 38 38 39 40 41 41 42 43 43 44 45 47 46 46 48 47 46 45 43 43 46 47 49 51 51 50 47 44 43 45 45
37 37 35 35 35 34 35 40 46 49 51 51 53 58 59 56 54 55 58 57 58 62 63 59 54 53 52 49 45 44 44 43 42 43 43 44 44 44 45 45 45 43 40 36 37 37 36 35 34 33 32 31 31 32 32 28 27 28 28 28 31 35 39 40 42 42 40 37 37 38 38 37 40 41 41 43 44 45 46 46 48 47 46 46 43 44 47 50 49 50 49 47 44 42 43 44 43
33 35 34 33 33 34 34 37 42 43 47 50 52 55 57 57 55 55 56 54 56 59 61 60 56 54 54 51 46 45 43 42 42 41 40 40 42 43 44 44 44 43 40 37 36 36 36 35 34 34 34 34 33 33 32 30 29 30 30 30 33 36 39 42 42 43 42 38 35 37 37 36 37 39 39 41 43 44 44 46 47 45 46 46 44 45 49 51 48 47 47 44 41 40 41 41 40
30 32 33 32 32 34 35 36 39 41 45 48 49 51 55 58 56 55 57 55 54 55 57 58 56 54 55 53 49 46 43 42 41 39 38 36 38 41 43 44 44 43 41 38 35 35 35 33 33 33 33 34 33 31 31 31 31 31 31 32 36 38 39 40 41 42 41 37 35 35 37 36 35 36 38 39 41 42 43 46 47 45 46 45 44 47 50 50 48 47 46 42 40 39 39 40 40
28 29 30 31 32 34 35 36 38 39 42 44 44 47 52 57 55 53 55 54 52 53 55 58 59 55 54 53 51 47 44 41 40 40 38 35 34 37 40 42 42 43 41 38 36 36 35 33 33 31 31 31 31 29 29 31 32 33 32 33 36 37 36 37 38 39 39 37 35 35 35 35 34 33 35 37 37 39 41 44 47 46 47 46 45 49 51 50 49 47 45 42 39 40 40 40 41
27 28 28 29 31 33 33 33 36 39 41 42 44 47 50 55 53 50 50 48 48 52 55 57 58 57 55 54 51 48 45 42 40 40 39 37 35 34 37 40 42 42 42 40 37 36 36 35 33 32 31 30 29 29 29 30 32 33 33 34 36 36 34 35 36 37 37 36 35 34 33 34 34 30 30 31 32 35 37 40 44 46 47 46 45 49 51 48 48 47 45 42 40 41 40 39 39
27 27 27 28 30 30 29 31 34 38 41 42 44 45 48 53 52 49 48 45 44 50 54 56 58 57 57 55 50 48 46 44 41 39 39 38 36 34 35 38 40 42 42 41 39 37 37 36 34 33 31 30 29 29 28 29 31 34 33 34 36 36 33 33 35 35 35 36 35 34 32 32 32 29 26 27 29 32 35 37 40 44 46 44 45 48 48 46 46 46 44 40 40 42 40 38 37
26 27 27 27 28 28 27 29 32 36 40 42 40 41 48 53 51 49 49 48 45 48 54 55 55 55 56 55 50 47 48 47 44 41 39 38 37 35 35 35 37 42 44 42 40 37 36 36 34 32 31 30 29 28 27 27 29 30 30 31 34 34 32 32 33 35 35 36 37 35 33 32 30 29 27 27 28 30 33 35 36 40 43 43 44 46 45 46 46 43 42 39 39 42 39 38 37
24 27 27 26 26 26 26 29 32 34 37 41 41 41 47 51 49 48 49 49 45 46 50 51 52 52 53 53 51 48 48 48 46 43 41 39 38 35 35 34 34 39 43 42 40 38 35 34 34 32 31 29 29 29 28 27 26 27 28 28 30 32 31 30 31 34 36 37 37 37 35 33 30 29 27 27 27 28 31 35 35 38 40 41 43 43 44 47 45 41 40 38 38 40 39 38 37
22 25 26 26 25 24 26 30 36 36 33 38 43 42 45 49 49 47 46 45 42 43 44 45 48 48 48 51 51 48 48 48 46 44 43 42 39 37 35 34 32 32 37 38 38 38 35 34 34 33 31 29 29 30 28 26 25 26 27 26 28 30 29 29 30 33 36 37 38 37 36 33 31 30 27 27 27 26 29 33 35 36 39 41 42 42 42 45 44 40 39 38 38 39 37 37 38
19 22 24 24 22 23 26 29 36 40 35 36 41 42 44 49 52 50 45 44 42 42 41 42 45 44 45 49 50 48 48 47 45 43 43 43 41 39 36 34 32 30 32 34 35 36 35 33 33 32 30 29 30 31 29 27 26 27 27 26 27 28 29 29 32 34 35 36 37 37 36 34 32 30 28 27 25 25 27 31 33 35 38 40 42 41 42 44 43 39 39 40 39 39 38 38 39
17 18 20 20 19 21 24 27 34 39 37 36 41 44 45 49 55 54 48 46 43 41 41 41 44 42 43 46 47 47 48 47 45 42 42 43 42 41 36 33 32 30 30 32 32 32 31 31 31 31 30 28 28 30 30 28 27 28 29 30 32 33 33 31 33 35 35 34 34 34 33 32 32 30 28 27 25 26 28 30 32 35 37 39 41 40 40 43 42 39 39 40 39 39 40 40 40
14 15 16 17 17 19 22 28 35 39 37 36 39 45 48 48 53 53 49 49 46 42 41 39 40 41 42 44 45 46 48 48 46 42 41 42 42 42 38 33 31 29 29 29 30 30 29 29 29 31 30 28 27 28 29 28 26 25 26 29 31 32 31 29 29 30 31 30 30 29 30 31 31 30 29 27 26 27 28 28 29 33 37 38 40 39 39 42 41 38 38 39 39 40 41 42 41
13 13 12 14 17 18 22 28 34 37 35 34 36 42 46 45 48 50 48 48 46 43 40 37 37 39 40 41 43 45 46 47 46 43 42 41 42 43 41 35 31 28 28 27 28 29 28 27 27 29 30 29 27 26 27 27 25 24 23 23 23 24 23 22 23 24 25 25 25 26 28 30 30 30 28 27 26 26 27 28 28 31 36 37 40 39 38 42 41 37 38 39 39 41 42 42 39
13 11 10 13 16 17 22 27 32 34 33 33 34 36 41 42 43 44 45 45 45 44 41 37 36 37 38 39 40 43 44 45 45 43 42 40 41 43 41 38 33 28 27 27 27 27 28 27 26 27 29 29 28 26 25 25 23 22 21 20 20 20 19 19 21 22 23 24 24 24 24 26 29 29 28 26 25 24 25 27 27 29 34 37 40 39 37 41 42 37 37 38 38 40 40 40 39
14 12 10 11 14 16 20 26 30 32 33 34 35 35 39 42 39 39 43 45 47 46 41 36 35 35 37 38 39 41 44 45 44 42 41 40 41 42 41 39 36 31 27 26 26 26 26 27 26 26 27 28 28 27 25 24 22 21 20 20 19 18 18 19 21 22 23 23 22 22 21 23 26 28 27 26 24 23 23 25 26 27 31 35 38 39 36 39 41 37 36 38 37 37 38 39 40
13 13 13 11 12 13 17 26 30 32 35 34 33 34 37 41 40 37 42 46 46 42 37 34 34 34 36 36 37 41 44 46 45 43 41 41 40 42 41 40 39 35 29 26 26 26 26 26 26 26 26 27 28 27 26 24 23 22 20 19 18 18 18 19 22 22 22 22 21 21 20 20 22 24 25 26 26 22 22 23 24 26 29 32 36 37 36 37 40 38 36 38 37 36 36 37 39
14 14 15 16 15 13 15 24 30 33 34 32 31 32 32 36 40 37 37 40 38 35 35 36 35 34 35 34 35 40 44 45 45 43 42 42 41 41 41 41 39 38 34 29 26 25 25 25 26 25 25 26 27 27 26 25 24 22 20 18 17 18 18 19 20 20 20 20 20 19 19 18 19 19 22 27 28 24 22 21 22 25 27 31 35 36 36 37 39 38 38 38 37 37 36 35 36
16 15 17 20 20 16 15 21 29 35 35 31 29 30 28 29 35 36 35 34 31 30 32 34 34 33 32 32 35 40 42 43 44 43 42 42 41 41 42 41 39 37 36 32 28 26 25 25 24 25 25 25 26 26 26 25 24 22 20 19 18 18 18 18 19 18 18 18 17 17 18 18 17 17 20 26 29 26 23 20 21 23 25 29 33 35 35 36 38 39 37 37 37 37 37 36 35
19 18 19 21 22 19 19 21 27 34 35 31 27 28 27 25 27 31 33 30 27 27 29 31 32 31 29 30 36 40 42 43 44 43 42 41 40 39 40 41 39 37 35 33 30 26 24 24 23 24 25 25 25 25 25 24 23 21 20 19 18 18 18 18 17 17 17 16 16 16 17 17 16 16 18 22 24 25 24 21 20 21 24 27 30 33 33 34 37 39 38 36 36 37 37 36 35
21 19 18 21 22 21 23 24 23 27 30 27 25 24 24 22 20 22 25 25 25 26 29 31 33 30 28 28 32 36 40 43 43 43 42 42 42 39 39 40 40 37 35 33 29 25 24 24 23 22 23 23 24 24 24 24 22 20 19 18 18 18 18 18 17 16 16 14 13 13 14 15 14 13 15 17 20 22 22 21 20 21 23 26 28 30 32 32 34 38 39 37 36 36 36 36 36
20 17 16 19 20 20 23 22 19 21 23 22 23 23 19 19 18 17 19 22 24 26 28 31 33 32 28 25 27 34 39 42 43 43 43 44 43 40 39 40 39 37 34 32 30 26 24 23 22 22 22 22 23 24 24 23 21 20 19 18 17 17 16 17 17 17 16 14 12 11 12 14 14 13 14 15 18 21 22 21 21 21 22 24 26 27 29 32 33 36 39 39 38 37 37 37 36
20 17 15 17 18 19 20 20 18 17 17 17 19 20 17 16 17 16 19 22 22 23 25 28 32 33 28 24 26 33 38 40 43 43 43 44 42 39 39 40 39 37 35 32 30 28 26 23 22 21 21 21 22 23 23 22 21 19 19 19 18 16 16 16 17 17 16 13 11 10 11 12 13 14 15 15 16 19 23 23 23 22 21 22 24 25 26 30 31 33 38 40 39 39 39 38 37
21 20 16 14 15 17 17 18 17 15 15 15 15 15 15 14 14 14 17 19 20 21 23 24 28 31 28 24 24 28 32 36 38 40 41 40 39 37 38 39 39 39 36 32 30 28 26 23 21 21 21 21 21 22 22 21 22 21 20 20 19 17 16 15 15 14 14 13 12 10 10 12 13 14 14 14 14 16 20 22 23 23 23 22 22 22 24 27 29 31 33 36 38 39 41 40 39
21 20 16 13 14 16 17 19 18 17 17 17 13 12 14 14 14 15 16 16 16 19 21 21 23 27 26 24 23 24 25 28 32 37 40 39 37 37 37 38 39 40 37 31 28 28 27 24 21 20 21 21 21 21 21 21 22 22 21 20 20 18 17 15 14 14 14 13 12 11 11 12 13 13 13 13 13 14 15 17 19 20 21 22 22 22 23 25 27 28 30 31 33 36 39 41 41
20 19 16 17 17 16 17 18 18 18 18 18 14 12 12 13 13 13 13 13 13 15 19 20 21 22 23 23 23 22 23 27 34 40 42 40 37 36 37 38 39 40 37 31 27 26 26 25 22 21 20 20 21 21 21 21 21 22 21 21 20 19 17 16 15 15 15 14 13 12 11 11 12 13 13 13 12 12 13 15 16 17 18 19 20 20 21 22 24 25 27 29 30 32 34 36 39
19 19 19 18 17 16 16 16 16 19 20 18 16 14 13 11 10 8 8 8 10 12 17 20 20 19 20 21 20 20 23 28 35 38 40 39 37 35 35 37 39 41 39 34 29 26 25 24 23 21 20 20 21 22 22 21 21 21 21 20 20 19 19 17 16 16 15 14 13 12 11 10 11 12 12 13 12 12 14 15 15 16 18 18 18 18 18 19 21 22 23 25 27 30 31 32 34
20 19 20 19 18 17 17 15 15 19 23 22 19 17 14 10 7 7 7 7 7 8 12 18 19 18 18 19 18 18 21 29 33 34 34 37 38 36 34 36 40 41 40 35 30 27 26 25 23 21 21 21 21 22 22 22 21 21 21 20 19 18 18 18 18 17 15 14 13 13 12 11 11 11 12 12 13 13 15 16 18 18 19 19 19 18 17 17 18 19 20 21 22 25 28 30 32
22 20 19 18 18 18 18 18 16 14 19 23 22 20 17 12 10 10 11 10 7 7 9 14 17 16 15 15 16 16 20 26 29 30 33 37 38 37 35 37 40 40 39 37 32 29 28 27 25 23 22 22 21 22 22 22 22 21 20 19 18 18 18 18 18 17 16 15 14 13 13 13 12 12 13 14 14 15 17 18 19 20 20 20 20 19 19 18 17 17 19 20 20 21 24 27 30